Time,TemperatureF,DewpointF,PressureIn,WindDirection,WindDirectionDegrees,WindSpeedMPH,WindSpeedGustMPH,Humidity,HourlyPrecipIn,Conditions,Clouds,dailyrainin,SoftwareType,DateUTC
2013-03-15 00:02:00,43.8,31.6,29.92,West,275,1.1,1.1,62,0.00,CLR,SKC,0.00,WeatherDisplay:10.37,2013-03-15 06:02:00,
2013-03-15 00:07:00,43.7,31.5,29.92,WSW,239,3.5,3.5,62,0.00,CLR,SKC,0.00,WeatherDisplay:10.37,2013-03-15 06:07:00,
2013-03-15 00:12:00,43.8,31.2,29.92,WSW,239,1.1,0.0,61,0.00,CLR,SKC,0.00,WeatherDisplay:10.37,2013-03-15 06:12:00,
2013-03-15 00:17:00,43.8,32.0,29.92,WSW,239,0.0,0.0,63,0.00,CLR,SKC,0.00,WeatherDisplay:10.37,2013-03-15 06:17:00,
2013-03-15 00:23:00,43.6,32.2,29.92,WSW,239,0.0,1.0,64,0.00,CLR,SKC,0.00,WeatherDisplay:10.37,2013-03-15 06:23:00,
2013-03-15 00:28:00,43.5,31.7,29.92,WSW,239,1.1,1.1,63,0.00,CLR,SKC,0.00,WeatherDisplay:10.37,2013-03-15 06:28:00,
2013-03-15 00:34:00,43.4,31.6,29.92,WSW,239,1.0,1.0,63,0.00,CLR,SKC,0.00,WeatherDisplay:10.37,2013-03-15 06:34:00,
2013-03-15 00:39:00,43.3,32.3,29.92,WSW,240,2.3,2.3,65,0.00,CLR,SKC,0.00,WeatherDisplay:10.37,2013-03-15 06:39:00,
2013-03-15 00:44:00,43.3,31.9,29.92,WSW,240,0.0,1.0,64,0.00,CLR,SKC,0.00,WeatherDisplay:10.37,2013-03-15 06:44:00,
2013-03-15 00:49:00,43.1,31.7,29.92,SW,232,1.0,1.0,64,0.00,CLR,SKC,0.00,WeatherDisplay:10.37,2013-03-15 06:49:00,
2013-03-15 00:54:00,42.9,31.6,29.91,SW,232,0.0,0.0,64,0.00,CLR,SKC,0.00,WeatherDisplay:10.37,2013-03-15 06:54:00,
2013-03-15 01:00:00,42.7,31.7,29.91,SW,232,2.3,2.3,65,0.00,CLR,SKC,0.00,WeatherDisplay:10.37,2013-03-15 07:00:00,
2013-03-15 01:05:00,42.7,32.1,29.91,WSW,256,1.1,1.1,66,0.00,CLR,SKC,0.00,WeatherDisplay:10.37,2013-03-15 07:05:00,
2013-03-15 01:10:00,42.7,32.1,29.91,WSW,256,0.0,0.0,66,0.00,CLR,SKC,0.00,WeatherDisplay:10.37,2013-03-15 07:10:00,
2013-03-15 01:15:00,42.3,32.1,29.91,WSW,256,2.3,2.3,67,0.00,CLR,SKC,0.00,WeatherDisplay:10.37,2013-03-15 07:15:00,
2013-03-15 01:22:00,41.6,31.4,29.91,WSW,256,0.0,0.0,67,0.00,CLR,SKC,0.00,WeatherDisplay:10.37,2013-03-15 07:22:00,
2013-03-15 01:27:00,41.3,31.5,29.91,WSW,256,1.1,1.1,68,0.00,CLR,SKC,0.00,WeatherDisplay:10.37,2013-03-15 07:27:00,
2013-03-15 01:32:00,40.9,31.9,29.91,WSW,257,0.0,0.0,70,0.00,CLR,SKC,0.00,WeatherDisplay:10.37,2013-03-15 07:32:00,
2013-03-15 01:37:00,40.9,31.5,29.91,WNW,289,1.1,1.1,69,0.00,CLR,SKC,0.00,WeatherDisplay:10.37,2013-03-15 07:37:00,
2013-03-15 01:43:00,41.1,31.3,29.91,WNW,289,2.3,2.3,68,0.00,CLR,SKC,0.00,WeatherDisplay:10.37,2013-03-15 07:43:00,
2013-03-15 01:48:00,40.9,31.1,29.91,WNW,289,0.0,0.0,68,0.00,CLR,SKC,0.00,WeatherDisplay:10.37,2013-03-15 07:48:00,
2013-03-15 01:54:00,41.0,31.6,29.92,NW,310,0.0,4.0,69,0.00,CLR,SKC,0.00,WeatherDisplay:10.37,2013-03-15 07:54:00,
2013-03-15 01:59:00,41.4,31.3,29.92,West,259,1.1,1.1,67,0.00,CLR,SKC,0.00,WeatherDisplay:10.37,2013-03-15 07:59:00,
2013-03-15 02:04:00,41.6,32.2,29.92,NNW,342,2.3,2.3,69,0.00,CLR,SKC,0.00,WeatherDisplay:10.37,2013-03-15 08:04:00,
2013-03-15 02:09:00,42.0,32.2,29.92,NNE,18,2.3,2.3,68,0.00,CLR,SKC,0.00,WeatherDisplay:10.37,2013-03-15 08:09:00,
2013-03-15 02:15:00,44.5,32.7,29.92,SSW,213,3.5,3.5,63,0.00,CLR,SKC,0.00,WeatherDisplay:10.37,2013-03-15 08:15:00,
2013-03-15 02:21:00,44.0,31.8,29.93,WSW,255,3.5,3.5,62,0.00,CLR,SKC,0.00,WeatherDisplay:10.37,2013-03-15 08:21:00,
2013-03-15 02:26:00,43.4,32.0,29.92,ENE,67,2.3,2.3,64,0.00,CLR,SKC,0.00,WeatherDisplay:10.37,2013-03-15 08:26:00,
2013-03-15 02:31:00,43.3,31.5,29.93,WNW,302,3.5,3.5,63,0.00,CLR,SKC,0.00,WeatherDisplay:10.37,2013-03-15 08:31:00,
2013-03-15 02:37:00,45.1,32.0,29.92,NNW,330,3.5,3.5,60,0.00,CLR,SKC,0.00,WeatherDisplay:10.37,2013-03-15 08:37:00,
2013-03-15 02:42:00,46.3,31.9,29.92,ENE,63,3.5,3.5,57,0.00,CLR,SKC,0.00,WeatherDisplay:10.37,2013-03-15 08:42:00,
2013-03-15 02:47:00,46.3,32.7,29.92,ENE,71,2.3,2.3,59,0.00,CLR,SKC,0.00,WeatherDisplay:10.37,2013-03-15 08:47:00,
2013-03-15 02:52:00,45.5,32.0,29.93,WSW,254,3.5,3.5,59,0.00,CLR,SKC,0.00,WeatherDisplay:10.37,2013-03-15 08:52:00,
2013-03-15 02:57:00,44.5,31.9,29.93,NNW,339,3.5,3.5,61,0.00,CLR,SKC,0.00,WeatherDisplay:10.37,2013-03-15 08:57:00,
2013-03-15 03:02:00,45.7,32.2,29.93,SW,220,3.5,3.5,59,0.00,CLR,SKC,0.00,WeatherDisplay:10.37,2013-03-15 09:02:00,
2013-03-15 03:07:00,47.2,32.3,29.94,SW,220,3.5,3.5,56,0.00,CLR,SKC,0.00,WeatherDisplay:10.37,2013-03-15 09:07:00,
2013-03-15 03:13:00,49.0,31.2,29.93,SSW,202,2.3,2.3,50,0.00,CLR,SKC,0.00,WeatherDisplay:10.37,2013-03-15 09:13:00,
2013-03-15 03:18:00,49.5,31.1,29.94,SW,235,5.0,5.0,49,0.00,CLR,SKC,0.00,WeatherDisplay:10.37,2013-03-15 09:18:00,
2013-03-15 03:23:00,50.4,31.4,29.94,West,262,2.3,2.3,48,0.00,CLR,SKC,0.00,WeatherDisplay:10.37,2013-03-15 09:23:00,
2013-03-15 03:28:00,50.4,31.4,29.94,SW,215,5.0,5.0,48,0.00,CLR,SKC,0.00,WeatherDisplay:10.37,2013-03-15 09:28:00,
2013-03-15 03:33:00,51.0,30.9,29.94,SSW,207,3.5,3.5,46,0.00,CLR,SKC,0.00,WeatherDisplay:10.37,2013-03-15 09:33:00,
2013-03-15 03:38:00,51.4,31.3,29.94,SSW,211,5.0,5.0,46,0.00,CLR,SKC,0.00,WeatherDisplay:10.37,2013-03-15 09:38:00,
2013-03-15 03:43:00,51.7,31.6,29.94,WSW,240,6.0,13.0,46,0.00,CLR,SKC,0.00,WeatherDisplay:10.37,2013-03-15 09:43:00,
2013-03-15 03:48:00,51.7,32.1,29.94,SW,228,9.2,9.2,47,0.00,CLR,SKC,0.00,WeatherDisplay:10.37,2013-03-15 09:48:00,
2013-03-15 03:53:00,51.5,32.5,29.93,SSW,210,6.0,12.0,48,0.00,CLR,SKC,0.00,WeatherDisplay:10.37,2013-03-15 09:53:00,
2013-03-15 03:59:00,51.0,32.5,29.94,SSW,204,8.1,8.1,49,0.00,CLR,SKC,0.00,WeatherDisplay:10.37,2013-03-15 09:59:00,
2013-03-15 04:04:00,50.9,32.9,29.93,SW,222,5.8,5.8,50,0.00,CLR,SKC,0.00,WeatherDisplay:10.37,2013-03-15 10:04:00,
2013-03-15 04:10:00,50.6,32.6,29.93,West,260,6.0,6.0,50,0.00,CLR,SKC,0.00,WeatherDisplay:10.37,2013-03-15 10:10:00,
2013-03-15 04:15:00,50.5,32.5,29.93,WSW,242,11.5,11.5,50,0.00,CLR,SKC,0.00,WeatherDisplay:10.37,2013-03-15 10:15:00,
2013-03-15 04:20:00,50.7,32.7,29.93,SW,226,16.1,16.1,50,0.00,CLR,SKC,0.00,WeatherDisplay:10.37,2013-03-15 10:20:00,
2013-03-15 04:25:00,51.0,32.5,29.93,SW,222,15.0,15.0,49,0.00,CLR,SKC,0.00,WeatherDisplay:10.37,2013-03-15 10:25:00,
2013-03-15 04:30:00,51.2,32.2,29.92,SW,227,9.2,9.2,48,0.00,CLR,SKC,0.00,WeatherDisplay:10.37,2013-03-15 10:30:00,
2013-03-15 04:35:00,51.1,32.1,29.92,WSW,242,6.9,6.9,48,0.00,CLR,SKC,0.00,WeatherDisplay:10.37,2013-03-15 10:35:00,
2013-03-15 04:40:00,51.2,31.6,29.92,SW,230,8.1,8.1,47,0.00,CLR,SKC,0.00,WeatherDisplay:10.37,2013-03-15 10:40:00,
2013-03-15 04:45:00,51.4,31.8,29.92,SSW,197,3.5,3.5,47,0.00,CLR,SKC,0.00,WeatherDisplay:10.37,2013-03-15 10:45:00,
2013-03-15 04:50:00,51.5,31.4,29.92,SSE,167,6.9,6.9,46,0.00,CLR,SKC,0.00,WeatherDisplay:10.37,2013-03-15 10:50:00,
2013-03-15 04:57:00,51.4,31.3,29.92,SW,226,4.6,4.6,46,0.00,CLR,SKC,0.00,WeatherDisplay:10.37,2013-03-15 10:57:00,
2013-03-15 05:03:00,51.2,31.1,29.93,SW,232,2.0,5.0,46,0.00,CLR,SKC,0.00,WeatherDisplay:10.37,2013-03-15 11:03:00,
2013-03-15 05:08:00,51.1,31.6,29.92,SSW,207,5.8,5.8,47,0.00,CLR,SKC,0.00,WeatherDisplay:10.37,2013-03-15 11:08:00,
2013-03-15 05:13:00,51.2,31.1,29.91,NNE,25,8.0,8.0,46,0.00,CLR,SKC,0.00,WeatherDisplay:10.37,2013-03-15 11:13:00,
2013-03-15 05:18:00,51.7,31.6,29.92,North,11,3.5,3.5,46,0.00,CLR,SKC,0.00,WeatherDisplay:10.37,2013-03-15 11:18:00,
2013-03-15 05:23:00,51.7,31.6,29.92,SE,133,3.5,3.5,46,0.00,CLR,SKC,0.00,WeatherDisplay:10.37,2013-03-15 11:23:00,
2013-03-15 05:28:00,51.4,32.3,29.92,North,9,4.6,4.6,48,0.00,CLR,SKC,0.00,WeatherDisplay:10.37,2013-03-15 11:28:00,
2013-03-15 05:33:00,50.9,31.9,29.92,SSW,212,6.9,6.9,48,0.00,CLR,SKC,0.00,WeatherDisplay:10.37,2013-03-15 11:33:00,
2013-03-15 05:38:00,51.0,31.5,29.92,NNE,19,3.5,3.5,47,0.00,CLR,SKC,0.00,WeatherDisplay:10.37,2013-03-15 11:38:00,
2013-03-15 05:43:00,50.9,31.9,29.92,West,279,12.7,12.7,48,0.00,CLR,SKC,0.00,WeatherDisplay:10.37,2013-03-15 11:43:00,
2013-03-15 05:48:00,50.7,32.2,29.93,SW,232,3.5,3.5,49,0.00,CLR,SKC,0.00,WeatherDisplay:10.37,2013-03-15 11:48:00,
2013-03-15 05:53:00,50.6,32.6,29.93,SW,214,6.9,6.9,50,0.00,CLR,SKC,0.00,WeatherDisplay:10.37,2013-03-15 11:53:00,
2013-03-15 05:58:00,50.2,33.2,29.93,SSW,198,11.5,11.5,52,0.00,CLR,SKC,0.00,WeatherDisplay:10.37,2013-03-15 11:58:00,
2013-03-15 06:03:00,50.2,32.8,29.93,West,265,8.1,8.1,51,0.00,CLR,SKC,0.00,WeatherDisplay:10.37,2013-03-15 12:03:00,
2013-03-15 06:08:00,50.0,33.5,29.94,SSW,212,5.8,5.8,53,0.00,CLR,SKC,0.00,WeatherDisplay:10.37,2013-03-15 12:08:00,
2013-03-15 06:13:00,49.6,33.6,29.93,SW,231,6.9,6.9,54,0.00,CLR,SKC,0.00,WeatherDisplay:10.37,2013-03-15 12:13:00,
2013-03-15 06:18:00,49.3,33.8,29.94,SW,214,5.8,5.8,55,0.00,CLR,SKC,0.00,WeatherDisplay:10.37,2013-03-15 12:18:00,
2013-03-15 06:24:00,49.1,33.6,29.94,SW,224,3.0,9.0,55,0.00,CLR,SKC,0.00,WeatherDisplay:10.37,2013-03-15 12:24:00,
2013-03-15 06:29:00,49.0,34.4,29.95,South,186,10.4,10.4,57,0.00,CLR,SKC,0.00,WeatherDisplay:10.37,2013-03-15 12:29:00,
2013-03-15 06:34:00,48.9,34.3,29.95,WSW,238,5.0,14.0,57,0.00,CLR,SKC,0.00,WeatherDisplay:10.37,2013-03-15 12:34:00,
2013-03-15 06:39:00,49.0,34.0,29.95,SW,227,4.6,4.6,56,0.00,CLR,SKC,0.00,WeatherDisplay:10.37,2013-03-15 12:39:00,
2013-03-15 06:45:00,49.1,34.5,29.95,SW,234,3.5,3.5,57,0.00,CLR,SKC,0.00,WeatherDisplay:10.37,2013-03-15 12:45:00,
2013-03-15 06:50:00,48.9,34.3,29.95,SSW,194,6.9,6.9,57,0.00,CLR,SKC,0.00,WeatherDisplay:10.37,2013-03-15 12:50:00,
2013-03-15 06:55:00,48.8,34.2,29.95,SW,214,6.9,6.9,57,0.00,CLR,SKC,0.00,WeatherDisplay:10.37,2013-03-15 12:55:00,
2013-03-15 07:00:00,48.7,34.1,29.95,WSW,240,5.8,5.8,57,0.00,CLR,SKC,0.00,WeatherDisplay:10.37,2013-03-15 13:00:00,
2013-03-15 07:05:00,48.8,34.2,29.96,NNW,328,3.5,3.5,57,0.00,CLR,SKC,0.00,WeatherDisplay:10.37,2013-03-15 13:05:00,
2013-03-15 07:11:00,48.5,34.4,29.96,NW,326,2.3,2.3,58,0.00,CLR,SKC,0.00,WeatherDisplay:10.37,2013-03-15 13:11:00,
2013-03-15 07:15:00,48.2,34.1,29.96,NE,53,2.3,2.3,58,0.00,CLR,SKC,0.00,WeatherDisplay:10.37,2013-03-15 13:15:00,
2013-03-15 07:20:00,48.1,34.0,29.96,West,274,4.0,4.0,58,0.00,CLR,SKC,0.00,WeatherDisplay:10.37,2013-03-15 13:20:00,
2013-03-15 07:25:00,48.5,33.9,29.96,SW,224,3.5,3.5,57,0.00,CLR,SKC,0.00,WeatherDisplay:10.37,2013-03-15 13:25:00,
2013-03-15 07:30:00,48.8,34.2,29.96,SW,232,6.9,6.9,57,0.00,CLR,SKC,0.00,WeatherDisplay:10.37,2013-03-15 13:30:00,
2013-03-15 07:36:00,48.9,34.8,29.96,WSW,239,3.5,3.5,58,0.00,CLR,SKC,0.00,WeatherDisplay:10.37,2013-03-15 13:36:00,
2013-03-15 07:41:00,48.7,34.6,29.97,WSW,252,4.6,4.6,58,0.00,CLR,SKC,0.00,WeatherDisplay:10.37,2013-03-15 13:41:00,
2013-03-15 07:46:00,48.3,34.2,29.97,WSW,250,1.1,1.1,58,0.00,CLR,SKC,0.00,WeatherDisplay:10.37,2013-03-15 13:46:00,
2013-03-15 07:52:00,47.9,34.3,29.97,NW,320,3.5,3.5,59,0.00,CLR,SKC,0.00,WeatherDisplay:10.37,2013-03-15 13:52:00,
2013-03-15 07:57:00,47.7,34.1,29.97,NNE,12,1.1,1.1,59,0.00,CLR,SKC,0.00,WeatherDisplay:10.37,2013-03-15 13:57:00,
2013-03-15 08:02:00,48.2,34.1,29.97,NE,56,1.1,1.1,58,0.00,CLR,SKC,0.00,WeatherDisplay:10.37,2013-03-15 14:02:00,
2013-03-15 08:08:00,48.0,34.8,29.97,ENE,65,4.6,4.6,60,0.00,CLR,SKC,0.00,WeatherDisplay:10.37,2013-03-15 14:08:00,
2013-03-15 08:13:00,47.6,35.2,29.97,NNE,20,2.0,8.0,62,0.00,CLR,SKC,0.00,WeatherDisplay:10.37,2013-03-15 14:13:00,
2013-03-15 08:18:00,47.6,36.4,29.97,NW,320,3.5,3.5,65,0.00,CLR,SKC,0.00,WeatherDisplay:10.37,2013-03-15 14:18:00,
2013-03-15 08:23:00,47.3,36.1,29.97,NW,319,1.0,5.0,65,0.00,CLR,SKC,0.00,WeatherDisplay:10.37,2013-03-15 14:23:00,
2013-03-15 08:28:00,47.0,36.6,29.97,West,280,5.8,5.8,67,0.00,CLR,SKC,0.00,WeatherDisplay:10.37,2013-03-15 14:28:00,
2013-03-15 08:33:00,46.9,36.9,29.97,WSW,250,2.3,2.3,68,0.00,CLR,SKC,0.00,WeatherDisplay:10.37,2013-03-15 14:33:00,
2013-03-15 08:38:00,46.6,36.6,29.97,WSW,257,3.5,3.5,68,0.00,CLR,SKC,0.00,WeatherDisplay:10.37,2013-03-15 14:38:00,
2013-03-15 08:43:00,46.5,36.9,29.97,WSW,248,1.0,5.0,69,0.00,CLR,SKC,0.00,WeatherDisplay:10.37,2013-03-15 14:43:00,
2013-03-15 08:48:00,46.5,36.9,29.96,WNW,297,3.5,3.5,69,0.00,CLR,SKC,0.00,WeatherDisplay:10.37,2013-03-15 14:48:00,
2013-03-15 08:53:00,46.6,36.6,29.96,WSW,253,1.0,5.0,68,0.00,CLR,SKC,0.00,WeatherDisplay:10.37,2013-03-15 14:53:00,
2013-03-15 08:58:00,47.1,35.5,29.97,WSW,240,8.1,8.1,64,0.00,CLR,SKC,0.00,WeatherDisplay:10.37,2013-03-15 14:58:00,
2013-03-15 09:04:00,47.8,35.8,29.96,SW,216,7.0,7.0,63,0.00,CLR,SKC,0.00,WeatherDisplay:10.37,2013-03-15 15:04:00,
2013-03-15 09:09:00,48.0,35.6,29.96,SW,216,1.1,0.0,62,0.00,CLR,SKC,0.00,WeatherDisplay:10.37,2013-03-15 15:09:00,
2013-03-15 09:14:00,48.2,36.2,29.96,SE,128,1.1,1.1,63,0.00,CLR,SKC,0.00,WeatherDisplay:10.37,2013-03-15 15:14:00,
2013-03-15 09:19:00,48.3,36.3,29.97,SE,128,1.1,0.0,63,0.00,CLR,SKC,0.00,WeatherDisplay:10.37,2013-03-15 15:19:00,
2013-03-15 09:24:00,48.4,36.4,29.97,SW,230,2.3,2.3,63,0.00,CLR,SKC,0.00,WeatherDisplay:10.37,2013-03-15 15:24:00,
2013-03-15 09:29:00,48.6,36.2,29.96,SW,217,1.1,0.0,62,0.00,CLR,SKC,0.00,WeatherDisplay:10.37,2013-03-15 15:29:00,
2013-03-15 09:34:00,49.0,35.3,29.96,SSW,199,2.3,2.3,59,0.00,CLR,SKC,0.00,WeatherDisplay:10.37,2013-03-15 15:34:00,
2013-03-15 09:39:00,49.9,35.3,29.97,NE,52,3.5,3.5,57,0.00,CLR,SKC,0.00,WeatherDisplay:10.37,2013-03-15 15:39:00,
2013-03-15 09:44:00,50.4,34.8,29.97,SSW,205,6.9,6.9,55,0.00,CLR,SKC,0.00,WeatherDisplay:10.37,2013-03-15 15:44:00,
2013-03-15 09:49:00,50.6,34.1,29.97,SW,229,3.5,3.5,53,0.00,CLR,SKC,0.00,WeatherDisplay:10.37,2013-03-15 15:49:00,
2013-03-15 09:54:00,51.2,34.2,29.97,SW,219,1.1,1.1,52,0.00,CLR,SKC,0.00,WeatherDisplay:10.37,2013-03-15 15:54:00,
2013-03-15 09:59:00,51.5,34.0,29.97,West,281,2.3,2.7,51,0.00,CLR,SKC,0.00,WeatherDisplay:10.37,2013-03-15 15:59:00,
2013-03-15 10:04:00,51.6,33.6,29.97,ESE,115,6.9,6.9,50,0.00,CLR,SKC,0.00,WeatherDisplay:10.37,2013-03-15 16:04:00,
2013-03-15 10:09:00,51.6,33.6,29.97,SW,225,3.5,3.5,50,0.00,CLR,SKC,0.00,WeatherDisplay:10.37,2013-03-15 16:09:00,
2013-03-15 10:14:00,51.6,33.0,29.97,NW,309,2.3,2.3,49,0.00,CLR,SKC,0.00,WeatherDisplay:10.37,2013-03-15 16:14:00,
2013-03-15 10:20:00,51.9,32.8,29.97,North,351,1.1,0.0,48,0.00,CLR,SKC,0.00,WeatherDisplay:10.37,2013-03-15 16:20:00,
2013-03-15 10:25:00,52.1,32.5,29.97,NNW,348,2.3,2.3,47,0.00,CLR,SKC,0.00,WeatherDisplay:10.37,2013-03-15 16:25:00,
2013-03-15 10:32:00,52.4,32.7,29.97,NW,326,2.3,2.3,47,0.00,CLR,SKC,0.00,WeatherDisplay:10.37,2013-03-15 16:32:00,
2013-03-15 10:37:00,52.4,31.1,29.97,NNE,13,2.3,2.3,44,0.00,CLR,SKC,0.00,WeatherDisplay:10.37,2013-03-15 16:37:00,
2013-03-15 10:42:00,52.3,31.0,29.97,NW,311,3.5,3.5,44,0.00,CLR,SKC,0.00,WeatherDisplay:10.37,2013-03-15 16:42:00,
2013-03-15 10:47:00,52.0,30.7,29.97,South,180,4.6,4.6,44,0.00,CLR,SKC,0.00,WeatherDisplay:10.37,2013-03-15 16:47:00,
2013-03-15 10:52:00,52.0,31.3,29.97,SE,135,3.5,3.5,45,0.00,CLR,SKC,0.00,WeatherDisplay:10.37,2013-03-15 16:52:00,
2013-03-15 10:57:00,52.2,31.5,29.97,WNW,295,1.1,0.0,45,0.00,CLR,SKC,0.00,WeatherDisplay:10.37,2013-03-15 16:57:00,
2013-03-15 11:02:00,52.4,30.5,29.97,SSW,198,3.5,3.5,43,0.00,CLR,SKC,0.00,WeatherDisplay:10.37,2013-03-15 17:02:00,
2013-03-15 11:07:00,52.4,30.5,29.97,NNW,332,1.1,1.1,43,0.00,CLR,SKC,0.00,WeatherDisplay:10.37,2013-03-15 17:07:00,
2013-03-15 11:15:00,52.6,30.1,29.98,SW,229,5.8,5.8,42,0.00,CLR,SKC,0.00,WeatherDisplay:10.37,2013-03-15 17:15:00,
2013-03-15 11:20:00,52.8,30.9,29.97,North,355,1.1,1.1,43,0.00,CLR,SKC,0.00,WeatherDisplay:10.37,2013-03-15 17:20:00,
2013-03-15 11:25:00,52.7,30.8,29.97,NNW,327,3.5,3.5,43,0.00,CLR,SKC,0.00,WeatherDisplay:10.37,2013-03-15 17:25:00,
2013-03-15 11:30:00,52.9,31.0,29.97,NNE,14,0.0,0.0,43,0.00,CLR,SKC,0.00,WeatherDisplay:10.37,2013-03-15 17:30:00,
2013-03-15 11:35:00,53.0,32.2,29.96,NW,312,3.5,3.5,45,0.00,CLR,SKC,0.00,WeatherDisplay:10.37,2013-03-15 17:35:00,
2013-03-15 11:40:00,53.1,31.2,29.97,NW,325,1.1,1.1,43,0.00,CLR,SKC,0.00,WeatherDisplay:10.37,2013-03-15 17:40:00,
2013-03-15 11:45:00,53.3,31.4,29.97,WNW,290,4.6,4.6,43,0.00,CLR,SKC,0.00,WeatherDisplay:10.37,2013-03-15 17:45:00,
2013-03-15 11:51:00,53.1,31.2,29.97,SSW,211,5.8,5.8,43,0.00,CLR,SKC,0.00,WeatherDisplay:10.37,2013-03-15 17:51:00,
2013-03-15 11:58:00,53.2,30.7,29.97,East,92,2.3,2.3,42,0.00,CLR,SKC,0.00,WeatherDisplay:10.37,2013-03-15 17:58:00,
2013-03-15 12:03:00,53.3,31.4,29.97,SSW,209,2.3,2.3,43,0.00,CLR,SKC,0.00,WeatherDisplay:10.37,2013-03-15 18:03:00,
2013-03-15 12:09:00,53.4,31.4,29.97,SW,224,3.5,3.5,43,0.00,CLR,SKC,0.00,WeatherDisplay:10.37,2013-03-15 18:09:00,
2013-03-15 12:13:00,53.4,32.0,29.97,SW,229,0.0,0.0,44,0.00,CLR,SKC,0.00,WeatherDisplay:10.37,2013-03-15 18:13:00,
2013-03-15 12:18:00,53.6,31.6,29.97,West,268,5.8,5.8,43,0.00,CLR,SKC,0.00,WeatherDisplay:10.37,2013-03-15 18:18:00,
2013-03-15 12:23:00,53.6,31.0,29.97,West,280,3.5,3.5,42,0.00,CLR,SKC,0.00,WeatherDisplay:10.37,2013-03-15 18:23:00,
2013-03-15 12:28:00,53.2,31.3,29.97,West,277,2.3,2.3,43,0.00,CLR,SKC,0.00,WeatherDisplay:10.37,2013-03-15 18:28:00,
2013-03-15 12:33:00,53.1,31.2,29.97,SSW,203,1.1,1.1,43,0.00,CLR,SKC,0.00,WeatherDisplay:10.37,2013-03-15 18:33:00,
2013-03-15 12:38:00,53.2,31.8,29.97,SSW,213,2.0,5.0,44,0.00,CLR,SKC,0.00,WeatherDisplay:10.37,2013-03-15 18:38:00,
2013-03-15 12:43:00,53.3,30.8,29.97,WNW,286,2.3,2.3,42,0.00,CLR,SKC,0.00,WeatherDisplay:10.37,2013-03-15 18:43:00,
2013-03-15 12:48:00,53.5,31.0,29.97,West,279,2.0,4.0,42,0.00,CLR,SKC,0.00,WeatherDisplay:10.37,2013-03-15 18:48:00,
2013-03-15 12:54:00,53.4,30.9,29.97,NNW,328,3.5,3.5,42,0.00,CLR,SKC,0.00,WeatherDisplay:10.37,2013-03-15 18:54:00,
2013-03-15 12:59:00,53.1,31.2,29.97,West,270,5.8,5.8,43,0.00,CLR,SKC,0.00,WeatherDisplay:10.37,2013-03-15 18:59:00,
2013-03-15 13:04:00,53.1,30.6,29.97,SW,220,1.1,1.1,42,0.00,CLR,SKC,0.00,WeatherDisplay:10.37,2013-03-15 19:04:00,
2013-03-15 13:09:00,53.3,31.4,29.97,WSW,246,4.0,4.0,43,0.00,CLR,SKC,0.00,WeatherDisplay:10.37,2013-03-15 19:09:00,
2013-03-15 13:14:00,53.4,31.4,29.97,WSW,251,2.3,2.3,43,0.00,CLR,SKC,0.00,WeatherDisplay:10.37,2013-03-15 19:14:00,
2013-03-15 13:19:00,53.4,30.9,29.97,WSW,240,3.5,3.5,42,0.00,CLR,SKC,0.00,WeatherDisplay:10.37,2013-03-15 19:19:00,
2013-03-15 13:24:00,53.4,30.9,29.97,SW,229,3.5,3.5,42,0.00,CLR,SKC,0.00,WeatherDisplay:10.37,2013-03-15 19:24:00,
2013-03-15 13:29:00,53.6,31.0,29.96,SW,217,3.5,3.5,42,0.00,CLR,SKC,0.00,WeatherDisplay:10.37,2013-03-15 19:29:00,
2013-03-15 13:34:00,53.9,30.7,29.96,WSW,253,2.3,2.3,41,0.00,CLR,SKC,0.00,WeatherDisplay:10.37,2013-03-15 19:34:00,
2013-03-15 13:39:00,54.2,31.0,29.96,WSW,238,3.5,3.5,41,0.00,CLR,SKC,0.00,WeatherDisplay:10.37,2013-03-15 19:39:00,
2013-03-15 13:44:00,54.3,31.1,29.96,NNW,347,2.3,2.3,41,0.00,CLR,SKC,0.00,WeatherDisplay:10.37,2013-03-15 19:44:00,
2013-03-15 13:49:00,54.5,30.6,29.96,SSW,201,3.5,3.5,40,0.00,CLR,SKC,0.00,WeatherDisplay:10.37,2013-03-15 19:49:00,
2013-03-15 13:54:00,54.4,30.6,29.96,West,277,3.5,3.5,40,0.00,CLR,SKC,0.00,WeatherDisplay:10.37,2013-03-15 19:54:00,
2013-03-15 13:59:00,54.7,31.4,29.95,West,261,1.1,1.6,41,0.00,CLR,SKC,0.00,WeatherDisplay:10.37,2013-03-15 19:59:00,
2013-03-15 14:04:00,54.5,30.6,29.95,NW,307,1.1,1.1,40,0.00,CLR,SKC,0.00,WeatherDisplay:10.37,2013-03-15 20:04:00,
2013-03-15 14:10:00,54.6,30.7,29.95,West,274,2.3,2.3,40,0.00,CLR,SKC,0.00,WeatherDisplay:10.37,2013-03-15 20:10:00,
2013-03-15 14:16:00,54.6,30.1,29.95,SW,232,5.8,5.8,39,0.00,CLR,SKC,0.00,WeatherDisplay:10.37,2013-03-15 20:16:00,
2013-03-15 14:22:00,54.6,30.7,29.95,SW,234,6.0,6.0,40,0.00,CLR,SKC,0.00,WeatherDisplay:10.37,2013-03-15 20:22:00,
2013-03-15 14:27:00,54.5,30.6,29.95,WSW,246,1.1,1.1,40,0.00,CLR,SKC,0.00,WeatherDisplay:10.37,2013-03-15 20:27:00,
2013-03-15 14:32:00,54.8,30.3,29.95,WSW,251,2.3,2.3,39,0.00,CLR,SKC,0.00,WeatherDisplay:10.37,2013-03-15 20:32:00,
2013-03-15 14:37:00,55.1,30.6,29.94,WNW,290,2.3,2.3,39,0.00,CLR,SKC,0.00,WeatherDisplay:10.37,2013-03-15 20:37:00,
2013-03-15 14:42:00,55.6,29.7,29.94,NW,313,2.3,2.3,37,0.00,CLR,SKC,0.00,WeatherDisplay:10.37,2013-03-15 20:42:00,
2013-03-15 14:47:00,55.5,29.0,29.94,WSW,247,1.1,1.1,36,0.00,CLR,SKC,0.00,WeatherDisplay:10.37,2013-03-15 20:47:00,
2013-03-15 14:52:00,55.2,30.0,29.93,SW,234,4.6,4.6,38,0.00,CLR,SKC,0.00,WeatherDisplay:10.37,2013-03-15 20:52:00,
2013-03-15 14:57:00,55.0,29.8,29.93,SW,229,3.5,3.5,38,0.00,CLR,SKC,0.00,WeatherDisplay:10.37,2013-03-15 20:57:00,
2013-03-15 15:02:00,54.8,29.0,29.93,WSW,244,2.3,2.3,37,0.00,CLR,SKC,0.00,WeatherDisplay:10.37,2013-03-15 21:02:00,
2013-03-15 15:07:00,54.6,28.8,29.93,SSW,213,3.5,3.5,37,0.00,CLR,SKC,0.00,WeatherDisplay:10.37,2013-03-15 21:07:00,
2013-03-15 15:12:00,54.5,29.4,29.93,ENE,78,2.0,2.0,38,0.00,CLR,SKC,0.00,WeatherDisplay:10.37,2013-03-15 21:12:00,
2013-03-15 15:17:00,54.5,30.0,29.93,ENE,78,0.0,0.0,39,0.00,CLR,SKC,0.00,WeatherDisplay:10.37,2013-03-15 21:17:00,
2013-03-15 15:23:00,54.8,29.0,29.92,NE,34,1.1,1.1,37,0.00,CLR,SKC,0.00,WeatherDisplay:10.37,2013-03-15 21:23:00,
2013-03-15 15:28:00,55.0,29.8,29.93,NNE,23,0.0,0.0,38,0.00,CLR,SKC,0.00,WeatherDisplay:10.37,2013-03-15 21:28:00,
2013-03-15 15:33:00,55.1,28.6,29.93,NW,321,0.0,0.0,36,0.00,CLR,SKC,0.00,WeatherDisplay:10.37,2013-03-15 21:33:00,
2013-03-15 15:38:00,55.0,29.2,29.93,SW,221,5.8,5.8,37,0.00,CLR,SKC,0.00,WeatherDisplay:10.37,2013-03-15 21:38:00,
2013-03-15 15:43:00,55.3,29.4,29.93,ENE,64,2.3,2.3,37,0.00,CLR,SKC,0.00,WeatherDisplay:10.37,2013-03-15 21:43:00,
2013-03-15 15:49:00,55.9,29.3,29.93,NNW,327,2.3,2.3,36,0.00,CLR,SKC,0.00,WeatherDisplay:10.37,2013-03-15 21:49:00,
2013-03-15 15:54:00,55.8,28.5,29.93,SW,229,3.5,3.5,35,0.00,CLR,SKC,0.00,WeatherDisplay:10.37,2013-03-15 21:54:00,
2013-03-15 15:59:00,55.9,29.3,29.92,NNW,338,1.1,1.1,36,0.00,CLR,SKC,0.00,WeatherDisplay:10.37,2013-03-15 21:59:00,
2013-03-15 16:04:00,55.9,29.3,29.92,SW,233,4.6,4.6,36,0.00,CLR,SKC,0.00,WeatherDisplay:10.37,2013-03-15 22:04:00,
2013-03-15 16:09:00,55.8,28.5,29.92,West,264,3.5,3.5,35,0.00,CLR,SKC,0.00,WeatherDisplay:10.37,2013-03-15 22:09:00,
2013-03-15 16:14:00,55.5,29.0,29.92,WSW,242,8.1,8.1,36,0.00,CLR,SKC,0.00,WeatherDisplay:10.37,2013-03-15 22:14:00,
2013-03-15 16:19:00,55.3,30.1,29.92,WSW,250,3.5,3.5,38,0.00,CLR,SKC,0.00,WeatherDisplay:10.37,2013-03-15 22:19:00,
2013-03-15 16:24:00,55.4,28.2,29.92,WNW,297,6.9,6.9,35,0.00,CLR,SKC,0.00,WeatherDisplay:10.37,2013-03-15 22:24:00,
2013-03-15 16:29:00,55.4,28.9,29.92,NE,35,2.3,2.3,36,0.00,CLR,SKC,0.00,WeatherDisplay:10.37,2013-03-15 22:29:00,
2013-03-15 16:34:00,55.8,29.2,29.92,WNW,283,3.5,3.5,36,0.00,CLR,SKC,0.00,WeatherDisplay:10.37,2013-03-15 22:34:00,
2013-03-15 16:39:00,55.8,29.2,29.92,WSW,250,2.3,2.3,36,0.00,CLR,SKC,0.00,WeatherDisplay:10.37,2013-03-15 22:39:00,
2013-03-15 16:44:00,55.8,28.5,29.92,SSW,213,5.8,5.8,35,0.00,CLR,SKC,0.00,WeatherDisplay:10.37,2013-03-15 22:44:00,
2013-03-15 16:49:00,55.5,28.3,29.92,SW,224,5.0,5.0,35,0.00,CLR,SKC,0.00,WeatherDisplay:10.37,2013-03-15 22:49:00,
2013-03-15 16:54:00,55.5,28.3,29.92,WSW,251,1.0,5.0,35,0.00,CLR,SKC,0.00,WeatherDisplay:10.37,2013-03-15 22:54:00,
2013-03-15 16:59:00,56.0,27.3,29.92,WNW,289,2.0,6.0,33,0.00,CLR,SKC,0.00,WeatherDisplay:10.37,2013-03-15 22:59:00,
2013-03-15 17:04:00,56.6,29.2,29.92,West,275,5.8,5.8,35,0.00,CLR,SKC,0.00,WeatherDisplay:10.37,2013-03-15 23:04:00,
2013-03-15 17:09:00,56.7,28.6,29.92,WSW,242,4.6,4.6,34,0.00,CLR,SKC,0.00,WeatherDisplay:10.37,2013-03-15 23:09:00,
2013-03-15 17:14:00,56.5,29.1,29.91,SSW,193,5.0,5.0,35,0.00,CLR,SKC,0.00,WeatherDisplay:10.37,2013-03-15 23:14:00,
2013-03-15 17:20:00,56.8,30.1,29.91,NW,314,5.8,5.8,36,0.00,CLR,SKC,0.00,WeatherDisplay:10.37,2013-03-15 23:20:00,
2013-03-15 17:26:00,57.1,30.4,29.91,WSW,243,2.0,2.0,36,0.00,CLR,SKC,0.00,WeatherDisplay:10.37,2013-03-15 23:26:00,
2013-03-15 17:31:00,57.0,30.3,29.91,WSW,238,2.3,2.3,36,0.00,CLR,SKC,0.00,WeatherDisplay:10.37,2013-03-15 23:31:00,
2013-03-15 17:36:00,56.7,30.0,29.91,WSW,240,3.5,3.5,36,0.00,CLR,SKC,0.00,WeatherDisplay:10.37,2013-03-15 23:36:00,
2013-03-15 17:41:00,56.3,31.0,29.91,NW,308,2.3,2.3,38,0.00,CLR,SKC,0.00,WeatherDisplay:10.37,2013-03-15 23:41:00,
2013-03-15 17:46:00,56.2,30.2,29.91,SSE,168,4.6,4.6,37,0.00,CLR,SKC,0.00,WeatherDisplay:10.37,2013-03-15 23:46:00,
2013-03-15 17:51:00,56.1,30.8,29.91,WSW,250,2.3,2.3,38,0.00,CLR,SKC,0.00,WeatherDisplay:10.37,2013-03-15 23:51:00,
2013-03-15 17:57:00,56.1,30.8,29.91,WNW,296,2.3,2.3,38,0.00,CLR,SKC,0.00,WeatherDisplay:10.37,2013-03-15 23:57:00,
2013-03-15 18:02:00,56.0,31.4,29.91,NW,311,2.3,2.3,39,0.00,CLR,SKC,0.00,WeatherDisplay:10.37,2013-03-16 00:02:00,
2013-03-15 18:08:00,55.9,30.6,29.91,WSW,244,7.0,7.0,38,0.00,CLR,SKC,0.00,WeatherDisplay:10.37,2013-03-16 00:08:00,
2013-03-15 18:13:00,55.6,31.0,29.91,SSW,205,3.5,3.5,39,0.00,CLR,SKC,0.00,WeatherDisplay:10.37,2013-03-16 00:13:00,
2013-03-15 18:18:00,55.3,31.4,29.91,NW,305,1.1,1.1,40,0.00,CLR,SKC,0.00,WeatherDisplay:10.37,2013-03-16 00:18:00,
2013-03-15 18:23:00,54.8,30.9,29.91,WNW,296,0.0,2.0,40,0.00,CLR,SKC,0.00,WeatherDisplay:10.37,2013-03-16 00:23:00,
2013-03-15 18:28:00,54.3,31.1,29.91,WNW,284,0.0,2.0,41,0.00,CLR,SKC,0.00,WeatherDisplay:10.37,2013-03-16 00:28:00,
2013-03-15 18:33:00,53.9,30.7,29.92,West,260,0.0,2.0,41,0.00,CLR,SKC,0.00,WeatherDisplay:10.37,2013-03-16 00:33:00,
2013-03-15 18:39:00,53.5,30.4,29.92,SSW,209,2.3,2.3,41,0.00,CLR,SKC,0.00,WeatherDisplay:10.37,2013-03-16 00:39:00,
2013-03-15 18:44:00,53.3,31.4,29.92,SSW,209,1.1,0.0,43,0.00,CLR,SKC,0.00,WeatherDisplay:10.37,2013-03-16 00:44:00,
2013-03-15 18:49:00,53.1,31.2,29.92,SSE,164,2.0,2.0,43,0.00,CLR,SKC,0.00,WeatherDisplay:10.37,2013-03-16 00:49:00,
2013-03-15 18:54:00,52.8,30.3,29.92,SSE,164,1.1,1.1,42,0.00,CLR,SKC,0.00,WeatherDisplay:10.37,2013-03-16 00:54:00,
2013-03-15 18:59:00,52.6,30.1,29.92,SSE,152,1.1,1.1,42,0.00,CLR,SKC,0.00,WeatherDisplay:10.37,2013-03-16 00:59:00,
2013-03-15 19:05:00,52.4,31.1,29.92,West,277,0.0,0.0,44,0.00,CLR,SKC,0.00,WeatherDisplay:10.37,2013-03-16 01:05:00,
2013-03-15 19:10:00,52.0,30.2,29.93,WSW,251,3.5,3.5,43,0.00,CLR,SKC,0.00,WeatherDisplay:10.37,2013-03-16 01:10:00,
2013-03-15 19:15:00,51.7,30.5,29.93,WSW,251,1.1,1.1,44,0.00,CLR,SKC,0.00,WeatherDisplay:10.37,2013-03-16 01:15:00,
2013-03-15 19:20:00,51.5,30.3,29.93,WSW,251,1.1,1.1,44,0.00,CLR,SKC,0.00,WeatherDisplay:10.37,2013-03-16 01:20:00,
2013-03-15 19:25:00,51.4,30.7,29.93,WSW,251,1.1,0.0,45,0.00,CLR,SKC,0.00,WeatherDisplay:10.37,2013-03-16 01:25:00,
2013-03-15 19:30:00,51.2,30.0,29.93,ENE,60,1.1,0.0,44,0.00,CLR,SKC,0.00,WeatherDisplay:10.37,2013-03-16 01:30:00,
2013-03-15 19:36:00,50.7,30.7,29.93,West,261,2.3,2.3,46,0.00,CLR,SKC,0.00,WeatherDisplay:10.37,2013-03-16 01:36:00,
2013-03-15 19:41:00,50.1,31.2,29.93,WSW,242,2.3,2.3,48,0.00,CLR,SKC,0.00,WeatherDisplay:10.37,2013-03-16 01:41:00,
2013-03-15 19:47:00,49.6,30.7,29.93,WSW,242,0.0,0.0,48,0.00,CLR,SKC,0.00,WeatherDisplay:10.37,2013-03-16 01:47:00,
2013-03-15 19:52:00,49.2,31.3,29.93,WSW,242,0.0,0.0,50,0.00,CLR,SKC,0.00,WeatherDisplay:10.37,2013-03-16 01:52:00,
2013-03-15 19:57:00,48.7,30.9,29.93,WSW,242,0.0,0.0,50,0.00,CLR,SKC,0.00,WeatherDisplay:10.37,2013-03-16 01:57:00,
2013-03-15 20:03:00,48.1,30.8,29.93,WSW,242,0.0,0.0,51,0.00,CLR,SKC,0.00,WeatherDisplay:10.37,2013-03-16 02:03:00,
2013-03-15 20:08:00,47.7,31.9,29.93,WSW,242,0.0,0.0,54,0.00,CLR,SKC,0.00,WeatherDisplay:10.37,2013-03-16 02:08:00,
2013-03-15 20:13:00,46.8,31.9,29.93,WSW,242,0.0,0.0,56,0.00,CLR,SKC,0.00,WeatherDisplay:10.37,2013-03-16 02:13:00,
2013-03-15 20:18:00,46.1,31.7,29.94,WSW,242,0.0,0.0,57,0.00,CLR,SKC,0.00,WeatherDisplay:10.37,2013-03-16 02:18:00,
2013-03-15 20:23:00,45.5,31.6,29.94,WSW,242,0.0,0.0,58,0.00,CLR,SKC,0.00,WeatherDisplay:10.37,2013-03-16 02:23:00,
2013-03-15 20:28:00,45.1,31.2,29.94,SW,233,1.1,0.0,58,0.00,CLR,SKC,0.00,WeatherDisplay:10.37,2013-03-16 02:28:00,
2013-03-15 20:33:00,44.7,31.7,29.94,SW,233,1.1,0.0,60,0.00,CLR,SKC,0.00,WeatherDisplay:10.37,2013-03-16 02:33:00,
2013-03-15 20:39:00,44.3,31.7,29.94,SW,233,0.0,0.0,61,0.00,CLR,SKC,0.00,WeatherDisplay:10.37,2013-03-16 02:39:00,
2013-03-15 20:44:00,43.9,30.9,29.94,SW,233,0.0,0.0,60,0.00,CLR,SKC,0.00,WeatherDisplay:10.37,2013-03-16 02:44:00,
2013-03-15 20:49:00,43.8,31.6,29.94,SW,234,1.1,1.1,62,0.00,CLR,SKC,0.00,WeatherDisplay:10.37,2013-03-16 02:49:00,
2013-03-15 20:54:00,43.9,31.3,29.94,SW,234,0.0,0.0,61,0.00,CLR,SKC,0.00,WeatherDisplay:10.37,2013-03-16 02:54:00,
2013-03-15 20:59:00,43.8,31.6,29.94,SW,234,0.0,1.0,62,0.00,CLR,SKC,0.00,WeatherDisplay:10.37,2013-03-16 02:59:00,
2013-03-15 21:04:00,43.5,31.4,29.95,SW,232,1.0,3.0,62,0.00,CLR,SKC,0.00,WeatherDisplay:10.37,2013-03-16 03:04:00,
2013-03-15 21:09:00,43.3,31.1,29.95,SW,230,0.0,1.0,62,0.00,CLR,SKC,0.00,WeatherDisplay:10.37,2013-03-16 03:09:00,
2013-03-15 21:15:00,43.2,32.2,29.95,SW,229,1.1,1.1,65,0.00,CLR,SKC,0.00,WeatherDisplay:10.37,2013-03-16 03:15:00,
2013-03-15 21:20:00,42.9,31.6,29.95,SW,229,1.0,0.0,64,0.00,CLR,SKC,0.00,WeatherDisplay:10.37,2013-03-16 03:20:00,
2013-03-15 21:25:00,42.6,32.4,29.95,SW,229,0.0,0.0,67,0.00,CLR,SKC,0.00,WeatherDisplay:10.37,2013-03-16 03:25:00,
2013-03-15 21:30:00,42.4,32.2,29.95,SW,229,0.0,0.0,67,0.00,CLR,SKC,0.00,WeatherDisplay:10.37,2013-03-16 03:30:00,
2013-03-15 21:35:00,42.4,32.2,29.95,SW,229,1.0,1.0,67,0.00,CLR,SKC,0.00,WeatherDisplay:10.37,2013-03-16 03:35:00,
2013-03-15 21:40:00,42.0,32.2,29.95,WSW,254,2.3,0.0,68,0.00,CLR,SKC,0.00,WeatherDisplay:10.37,2013-03-16 03:40:00,
2013-03-15 21:45:00,41.9,31.7,29.95,WSW,254,0.0,0.6,67,0.00,CLR,SKC,0.00,WeatherDisplay:10.37,2013-03-16 03:45:00,
2013-03-15 21:50:00,41.6,31.8,29.95,WSW,254,0.0,0.0,68,0.00,CLR,SKC,0.00,WeatherDisplay:10.37,2013-03-16 03:50:00,
2013-03-15 21:55:00,41.2,31.4,29.95,WSW,254,1.1,0.0,68,0.00,CLR,SKC,0.00,WeatherDisplay:10.37,2013-03-16 03:55:00,
2013-03-15 22:00:00,40.8,31.1,29.95,WSW,254,2.3,2.3,68,0.00,CLR,SKC,0.00,WeatherDisplay:10.37,2013-03-16 04:00:00,
2013-03-15 22:01:00,40.7,31.0,29.95,WSW,254,1.1,0.0,68,0.00,CLR,SKC,0.00,WeatherDisplay:10.37,2013-03-16 04:01:00,
2013-03-15 22:04:00,40.6,31.2,29.95,WSW,254,0.0,2.0,69,0.00,CLR,SKC,0.00,WeatherDisplay:10.37,2013-03-16 04:04:00,
2013-03-15 22:09:00,40.1,31.1,29.95,WSW,254,0.0,0.0,70,0.00,CLR,SKC,0.00,WeatherDisplay:10.37,2013-03-16 04:09:00,
2013-03-15 22:10:00,39.9,31.3,29.95,WSW,254,0.0,0.2,71,0.00,CLR,SKC,0.00,WeatherDisplay:10.37,2013-03-16 04:10:00,
2013-03-15 22:15:00,39.7,31.4,29.95,WSW,254,0.0,0.0,72,0.00,CLR,SKC,0.00,WeatherDisplay:10.37,2013-03-16 04:15:00,
2013-03-15 22:20:00,39.6,31.3,29.96,WSW,254,0.0,0.0,72,0.00,CLR,SKC,0.00,WeatherDisplay:10.37,2013-03-16 04:20:00,
2013-03-15 22:25:00,39.3,31.4,29.96,WSW,254,0.0,0.0,73,0.00,CLR,SKC,0.00,WeatherDisplay:10.37,2013-03-16 04:25:00,
2013-03-15 22:30:00,39.1,31.2,29.96,WSW,254,0.0,0.0,73,0.00,CLR,SKC,0.00,WeatherDisplay:10.37,2013-03-16 04:30:00,
2013-03-15 22:35:00,38.8,31.2,29.96,WSW,254,1.1,0.0,74,0.00,CLR,SKC,0.00,WeatherDisplay:10.37,2013-03-16 04:35:00,
2013-03-15 22:41:00,38.7,31.5,29.96,WSW,254,0.0,0.0,75,0.00,CLR,SKC,0.00,WeatherDisplay:10.37,2013-03-16 04:41:00,
2013-03-15 22:46:00,38.6,31.0,29.96,WSW,254,0.0,0.0,74,0.00,CLR,SKC,0.00,WeatherDisplay:10.37,2013-03-16 04:46:00,
2013-03-15 22:51:00,38.4,31.5,29.96,WSW,254,0.0,0.0,76,0.00,CLR,SKC,0.00,WeatherDisplay:10.37,2013-03-16 04:51:00,
2013-03-15 22:56:00,38.4,31.5,29.96,WSW,254,0.0,0.0,76,0.00,CLR,SKC,0.00,WeatherDisplay:10.37,2013-03-16 04:56:00,
2013-03-15 23:01:00,38.1,31.2,29.96,WSW,254,1.1,0.0,76,0.00,CLR,SKC,0.00,WeatherDisplay:10.37,2013-03-16 05:01:00,
2013-03-15 23:06:00,37.9,31.0,29.96,WSW,254,0.0,0.0,76,0.00,CLR,SKC,0.00,WeatherDisplay:10.37,2013-03-16 05:06:00,
2013-03-15 23:12:00,38.0,31.4,29.96,WSW,254,1.1,1.1,77,0.00,CLR,SKC,0.00,WeatherDisplay:10.37,2013-03-16 05:12:00,
2013-03-15 23:17:00,38.0,31.1,29.96,WSW,254,1.1,0.0,76,0.00,CLR,SKC,0.00,WeatherDisplay:10.37,2013-03-16 05:17:00,
2013-03-15 23:22:00,37.8,31.2,29.96,WSW,254,0.0,0.3,77,0.00,CLR,SKC,0.00,WeatherDisplay:10.37,2013-03-16 05:22:00,
2013-03-15 23:27:00,37.6,31.0,29.96,WSW,254,0.0,0.0,77,0.00,CLR,SKC,0.00,WeatherDisplay:10.37,2013-03-16 05:27:00,
2013-03-15 23:32:00,37.6,31.4,29.96,WSW,254,1.1,0.0,78,0.00,CLR,SKC,0.00,WeatherDisplay:10.37,2013-03-16 05:32:00,
2013-03-15 23:38:00,37.5,31.3,29.96,WSW,254,0.0,0.0,78,0.00,CLR,SKC,0.00,WeatherDisplay:10.37,2013-03-16 05:38:00,
2013-03-15 23:43:00,37.4,31.2,29.96,WSW,254,0.0,0.0,78,0.00,CLR,SKC,0.00,WeatherDisplay:10.37,2013-03-16 05:43:00,
2013-03-15 23:49:00,37.3,31.4,29.96,WSW,254,1.1,1.1,79,0.00,CLR,SKC,0.00,WeatherDisplay:10.37,2013-03-16 05:49:00,
2013-03-15 23:54:00,37.3,31.4,29.96,WSW,254,1.1,0.0,79,0.00,CLR,SKC,0.00,WeatherDisplay:10.37,2013-03-16 05:54:00,
2013-03-15 23:59:00,37.3,31.4,29.96,WSW,254,0.0,0.0,79,0.00,CLR,SKC,0.00,WeatherDisplay:10.37,2013-03-16 05:59:00,